This is the latest recevied weather packets stored in our database for station/object N4AN. If no packets are shown the sender has not sent any weather packets the latest 10 day(s).
| Time | Temp. | Humidity | Pressure | Rain* | Wind** | Luminosity | Snow |
|---|---|---|---|---|---|---|---|
| 1787798546 | 31.67° C | 75% | 1011.3 hPa | 0 mm | - | - | - |
| 1787798246 | 31.11° C | 76% | 1011.3 hPa | 0 mm | - | - | - |
| 1787797946 | 31.11° C | 75% | 1011.3 hPa | 0 mm | - | - | - |
| 1787797646 | 31.11° C | 76% | 1011.5 hPa | 0 mm | - | - | - |
| 1787797345 | 31.11° C | 75% | 1011.4 hPa | 0 mm | - | - | - |
| 1787797044 | 31.11° C | 75% | 1011.4 hPa | 0 mm | - | - | - |
| 1787796741 | 30.56° C | 77% | 1011.3 hPa | 0 mm | - | - | - |
| 1787796441 | 30° C | 79% | 1011.4 hPa | 0 mm | - | - | - |
| 1787796144 | 29.44° C | 79% | 1011.4 hPa | 0 mm | - | - | - |
| 1787795840 | 29.44° C | 79% | 1011.4 hPa | 0 mm | - | - | - |
| 1787795540 | 30° C | 78% | 1011.4 hPa | 0 mm | - | - | - |
| 1787795240 | 30° C | 78% | 1011.3 hPa | 0 mm | - | - | - |
| 1787794939 | 30° C | 77% | 1011.2 hPa | 0 mm | - | - | - |
| 1787794639 | 30° C | 76% | 1011.3 hPa | 0 mm | - | - | - |
| 1787794339 | 30.56° C | 76% | 1011.3 hPa | 0 mm | - | - | - |
| 1787794039 | 30.56° C | 75% | 1011.1 hPa | 0 mm | - | - | - |
| 1787793738 | 31.67° C | 74% | 1010.9 hPa | 0 mm | - | - | - |
| 1787793438 | 31.67° C | 74% | 1010.7 hPa | 0 mm | - | - | - |
| 1787793138 | 31.67° C | 75% | 1010.8 hPa | 0 mm | - | - | - |
| 1787792838 | 31.67° C | 75% | 1010.7 hPa | 0 mm | - | - | - |
| 1787792537 | 31.11° C | 75% | 1010.6 hPa | 0 mm | - | - | - |
| 1787792235 | 31.67° C | 74% | 1010.4 hPa | 0 mm | - | - | - |
| 1787791935 | 31.67° C | 73% | 1010.2 hPa | 0 mm | - | - | - |
| 1787791634 | 31.67° C | 70% | 1010.3 hPa | 0 mm | - | - | - |
| 1787791561 | 31.67° C | 72% | 1010.3 hPa | 0 mm | - | - | - |
* Rain latest hour (hover to see other rain measurements)
** Current wind speed in m/s (hover to see current wind gust speed)